FLOCK 4BE 9

导读

FLOCK 4BE 9是美国于2024年8月16日发射的一颗商业遥感卫星,隶属于Planet公司FLOCK系列SuperDove(超级鸽子)Dove星座。作为星座的补充卫星,它配备多光谱成像设备,可获取高分辨率地球影像,服务农业估产、林业监测、环境变化观测等多领域应用,助力提升全球对地观测的重访能力与数据时效性,为各行业决策提供空间信息支撑。

基本信息
目录编号:
60514
目录名称:
FLOCK 4BE 9
国际标识:
2024-149AY
轨道中心:
EARTH
卫星名称:
FLOCK 4BE 9
卫星全名:
FLOCK 4BE 9
卫星状态:
在轨 (已飞行664 天)
发射日期:
2024-08-16 UTC
国别 :
美国 (US)
星等 :
--
轨道信息
数据来源 国际轨道数据
星历时间: 2026-06-11T12:19:03+0800
17小时前
查看轨道信息
半长轴: 6822.425km
偏心率: 0.000159
轨道倾角: 97.379°
近地点辐角 339.598°
升交点赤经 246.394°
平近点角 20.520°
近地点: 443.203km
远地点: 445.373km
周期: 93.469分钟
每日圈数: 15.40617
详细信息
使用方式:
暂无
2D轨道图
3D轨道图
轨道高度分析图
轨道倾角分析图
轨道综合分析图
查看轨道综合分析图